^^
Station Historical Data
Daily Summary for February 6, 2021 Units:  English    Metric   Both
Daily Weekly Monthly Yearly
  High: Low: Average:
Temperature: 18.2 °F 12.4 °F 15.5 °F
Dew Point: 14.1 °F 6.3 °F 9.7 °F
Humidity: 87% 71% 77%
Wind Speed: 11mph 3mph 8.4mph
Wind Gust: 18mph - -
Wind- - WSW
Pressure: 29.99 in 29.66 in -
Precipitation: 0.00 in    
 
 
Tabular Data for February 6, 2021
Time Temperature Dew Point Pressure Wind Wind Speed Wind Gust Humidity Rainfall Rate (Hourly) solar
00:00 15.4 °F 10.3 °F 29.66 in WSW 8 mph 8 mph 80% 0.00 in 0 W/m2
00:05 15.4 °F 10.3 °F 29.66 in West 7 mph 14 mph 80% 0.00 in 0 W/m2
00:10 15.3 °F 10.2 °F 29.66 in WSW 8 mph 8 mph 80% 0.00 in 0 W/m2
00:15 15.3 °F 10 °F 29.66 in West 9 mph 15 mph 79% 0.00 in 0 W/m2
00:20 15.1 °F 9.8 °F 29.66 in West 9 mph 9 mph 79% 0.00 in 0 W/m2
00:25 15 °F 9.4 °F 29.66 in West 8 mph 10 mph 78% 0.00 in 0 W/m2
00:30 14.9 °F 9.3 °F 29.67 in West 7 mph 8 mph 78% 0.00 in 0 W/m2
00:35 14.8 °F 8.6 °F 29.67 in WNW 8 mph 8 mph 76% 0.00 in 0 W/m2
00:40 14.7 °F 8.5 °F 29.67 in WNW 9 mph 13 mph 76% 0.00 in 0 W/m2
00:45 14.8 °F 8.6 °F 29.67 in WSW 8 mph 13 mph 76% 0.00 in 0 W/m2
00:50 14.9 °F 8.4 °F 29.67 in West 8 mph 10 mph 75% 0.00 in 0 W/m2
00:55 14.9 °F 8.4 °F 29.67 in SW 8 mph 10 mph 75% 0.00 in 0 W/m2
01:00 15 °F 8.8 °F 29.67 in WSW 8 mph 8 mph 76% 0.00 in 0 W/m2
01:05 15 °F 9.4 °F 29.67 in WSW 8 mph 11 mph 78% 0.00 in 0 W/m2
01:10 14.9 °F 9.3 °F 29.67 in West 7 mph 14 mph 78% 0.00 in 0 W/m2
01:15 14.8 °F 8.6 °F 29.67 in SW 8 mph 14 mph 76% 0.00 in 0 W/m2
01:20 14.8 °F 8.6 °F 29.67 in West 8 mph 8 mph 76% 0.00 in 0 W/m2
01:25 14.7 °F 8.2 °F 29.67 in West 7 mph 13 mph 75% 0.00 in 0 W/m2
01:30 14.5 °F 8 °F 29.68 in West 8 mph 8 mph 75% 0.00 in 0 W/m2
01:35 14.3 °F 7.8 °F 29.68 in WSW 8 mph 8 mph 75% 0.00 in 0 W/m2
01:40 14.2 °F 7.4 °F 29.68 in NW 7 mph 7 mph 74% 0.00 in 0 W/m2
01:45 14.1 °F 7.3 °F 29.68 in West 7 mph 15 mph 74% 0.00 in 0 W/m2
01:50 14 °F 7.5 °F 29.68 in West 8 mph 8 mph 75% 0.00 in 0 W/m2
01:55 13.9 °F 7.4 °F 29.69 in West 7 mph 8 mph 75% 0.00 in 0 W/m2
02:00 13.7 °F 7.2 °F 29.69 in West 5 mph 10 mph 75% 0.00 in 0 W/m2
02:05 13.6 °F 7.1 °F 29.69 in West 6 mph 11 mph 75% 0.00 in 0 W/m2
02:10 13.6 °F 6.8 °F 29.69 in West 8 mph 8 mph 74% 0.00 in 0 W/m2
02:15 13.6 °F 6.8 °F 29.69 in WSW 8 mph 9 mph 74% 0.00 in 0 W/m2
02:20 13.5 °F 7 °F 29.69 in WSW 8 mph 12 mph 75% 0.00 in 0 W/m2
02:25 13.5 °F 6.8 °F 29.69 in NW 8 mph 12 mph 74% 0.00 in 0 W/m2
02:30 13.4 °F 6.7 °F 29.70 in WSW 8 mph 8 mph 74% 0.00 in 0 W/m2
02:35 13.4 °F 6.7 °F 29.70 in West 6 mph 8 mph 74% 0.00 in 0 W/m2
02:40 13.4 °F 7 °F 29.70 in SW 6 mph 10 mph 75% 0.00 in 0 W/m2
02:45 13.3 °F 6.9 °F 29.70 in West 7 mph 10 mph 75% 0.00 in 0 W/m2
02:50 13.3 °F 6.9 °F 29.70 in NW 6 mph 9 mph 75% 0.00 in 0 W/m2
02:55 13.2 °F 6.8 °F 29.70 in WSW 6 mph 9 mph 75% 0.00 in 0 W/m2
03:00 13.2 °F 6.5 °F 29.71 in West 7 mph 7 mph 74% 0.00 in 0 W/m2
03:05 13.1 °F 6.7 °F 29.71 in West 6 mph 7 mph 75% 0.00 in 0 W/m2
03:10 13.1 °F 6.4 °F 29.71 in West 6 mph 9 mph 74% 0.00 in 0 W/m2
03:15 13.1 °F 6.4 °F 29.72 in West 7 mph 9 mph 74% 0.00 in 0 W/m2
03:20 13.2 °F 6.5 °F 29.72 in West 9 mph 9 mph 74% 0.00 in 0 W/m2
03:25 13.2 °F 6.5 °F 29.72 in West 9 mph 9 mph 74% 0.00 in 0 W/m2
03:30 13.2 °F 6.8 °F 29.72 in West 8 mph 11 mph 75% 0.00 in 0 W/m2
03:35 13.1 °F 6.4 °F 29.73 in West 8 mph 13 mph 74% 0.00 in 0 W/m2
03:40 13.1 °F 6.7 °F 29.73 in West 9 mph 13 mph 75% 0.00 in 0 W/m2
03:45 13.2 °F 7 °F 29.73 in West 8 mph 13 mph 76% 0.00 in 0 W/m2
03:50 13.2 °F 7 °F 29.73 in WNW 8 mph 8 mph 76% 0.00 in 0 W/m2
03:55 13.2 °F 7 °F 29.74 in WSW 8 mph 12 mph 76% 0.00 in 0 W/m2
04:00 13.2 °F 7 °F 29.73 in WSW 8 mph 8 mph 76% 0.00 in 0 W/m2
04:05 13.2 °F 7 °F 29.74 in WNW 7 mph 8 mph 76% 0.00 in 0 W/m2
04:10 13.2 °F 7 °F 29.74 in West 7 mph 10 mph 76% 0.00 in 0 W/m2
04:15 13.1 °F 6.7 °F 29.74 in West 8 mph 10 mph 75% 0.00 in 0 W/m2
04:20 13.1 °F 6.7 °F 29.74 in SSW 8 mph 8 mph 75% 0.00 in 0 W/m2
04:25 13 °F 6.9 °F 29.75 in SW 8 mph 8 mph 76% 0.00 in 0 W/m2
04:30 12.8 °F 6.9 °F 29.75 in West 7 mph 9 mph 77% 0.00 in 0 W/m2
04:35 12.6 °F 6.8 °F 29.75 in WSW 7 mph 11 mph 77% 0.00 in 0 W/m2
04:40 12.7 °F 6.9 °F 29.75 in SW 8 mph 13 mph 77% 0.00 in 0 W/m2
04:45 12.7 °F 6.6 °F 29.75 in West 8 mph 15 mph 76% 0.00 in 0 W/m2
04:50 12.7 °F 6.6 °F 29.76 in West 8 mph 8 mph 76% 0.00 in 0 W/m2
04:55 12.8 °F 6.9 °F 29.76 in WSW 7 mph 8 mph 77% 0.00 in 0 W/m2
05:00 12.6 °F 7 °F 29.76 in SSW 7 mph 7 mph 78% 0.00 in 0 W/m2
05:05 12.6 °F 7.3 °F 29.77 in WSW 7 mph 11 mph 79% 0.00 in 0 W/m2
05:10 12.4 °F 7.1 °F 29.77 in SSW 7 mph 7 mph 79% 0.00 in 0 W/m2
05:15 12.4 °F 7.4 °F 29.77 in West 7 mph 8 mph 80% 0.00 in 0 W/m2
05:20 12.5 °F 7.5 °F 29.77 in West 8 mph 8 mph 80% 0.00 in 0 W/m2
05:25 12.4 °F 7.1 °F 29.77 in South 7 mph 9 mph 79% 0.00 in 0 W/m2
05:30 12.5 °F 7.2 °F 29.78 in West 8 mph 8 mph 79% 0.00 in 0 W/m2
05:35 12.6 °F 7.3 °F 29.78 in SW 8 mph 12 mph 79% 0.00 in 0 W/m2
05:40 12.7 °F 7.4 °F 29.78 in West 9 mph 11 mph 79% 0.00 in 0 W/m2
05:45 12.8 °F 7.2 °F 29.78 in SSW 8 mph 11 mph 78% 0.00 in 0 W/m2
05:50 12.8 °F 7.2 °F 29.78 in WSW 8 mph 11 mph 78% 0.00 in 0 W/m2
05:55 12.9 °F 7.6 °F 29.78 in West 9 mph 11 mph 79% 0.00 in 0 W/m2
06:00 12.9 °F 7.6 °F 29.79 in WNW 8 mph 13 mph 79% 0.00 in 0 W/m2
06:05 12.9 °F 7.3 °F 29.79 in WSW 9 mph 13 mph 78% 0.00 in 0 W/m2
06:10 12.8 °F 7.2 °F 29.80 in WSW 9 mph 9 mph 78% 0.00 in 0 W/m2
06:15 12.7 °F 7.4 °F 29.80 in SW 9 mph 9 mph 79% 0.00 in 0 W/m2
06:20 12.7 °F 7.4 °F 29.80 in WSW 8 mph 16 mph 79% 0.00 in 0 W/m2
06:25 12.6 °F 7.3 °F 29.80 in West 8 mph 16 mph 79% 0.00 in 0 W/m2
06:30 12.6 °F 7 °F 29.80 in SW 9 mph 9 mph 78% 0.00 in 0 W/m2
06:35 12.7 °F 7.1 °F 29.81 in South 9 mph 9 mph 78% 0.00 in 0 W/m2
06:40 12.7 °F 7.1 °F 29.81 in WNW 8 mph 9 mph 78% 0.00 in 0 W/m2
06:45 12.8 °F 7.2 °F 29.81 in SW 8 mph 9 mph 78% 0.00 in 0 W/m2
06:50 12.8 °F 7.2 °F 29.81 in WSW 8 mph 8 mph 78% 0.00 in 0 W/m2
06:55 12.9 °F 7 °F 29.81 in WSW 8 mph 10 mph 77% 0.00 in 0 W/m2
07:00 13 °F 7.4 °F 29.81 in West 8 mph 12 mph 78% 0.00 in 0 W/m2
07:05 13 °F 6.9 °F 29.81 in WNW 8 mph 12 mph 76% 0.00 in 0 W/m2
07:10 13.2 °F 7.3 °F 29.81 in SW 9 mph 11 mph 77% 0.00 in 0 W/m2
07:15 13.3 °F 7.1 °F 29.82 in West 9 mph 11 mph 76% 0.00 in 0 W/m2
07:20 13.4 °F 7.2 °F 29.82 in WSW 8 mph 8 mph 76% 0.00 in 0 W/m2
07:25 13.4 °F 7.2 °F 29.82 in SW 8 mph 8 mph 76% 0.00 in 0 W/m2
07:30 13.5 °F 7.3 °F 29.82 in WSW 9 mph 9 mph 76% 0.00 in 0 W/m2
07:35 13.6 °F 7.4 °F 29.83 in WSW 9 mph 12 mph 76% 0.00 in 0 W/m2
07:40 13.6 °F 7.4 °F 29.83 in WSW 9 mph 9 mph 76% 0.00 in 0 W/m2
07:45 13.6 °F 7.4 °F 29.83 in West 10 mph 11 mph 76% 0.00 in 5 W/m2
07:50 13.6 °F 7.1 °F 29.84 in West 9 mph 13 mph 75% 0.00 in 7 W/m2
07:55 13.7 °F 7.8 °F 29.84 in WSW 8 mph 13 mph 77% 0.00 in 7 W/m2
08:00 13.7 °F 7.5 °F 29.84 in WSW 8 mph 8 mph 76% 0.00 in 11 W/m2
08:05 13.7 °F 7.8 °F 29.85 in WSW 8 mph 13 mph 77% 0.00 in 16 W/m2
08:10 13.7 °F 7.5 °F 29.85 in West 9 mph 15 mph 76% 0.00 in 23 W/m2
08:15 13.7 °F 7.2 °F 29.86 in SSW 10 mph 15 mph 75% 0.00 in 25 W/m2
08:20 13.8 °F 7.6 °F 29.86 in WSW 9 mph 11 mph 76% 0.00 in 30 W/m2
08:25 13.9 °F 7.4 °F 29.86 in WNW 10 mph 14 mph 75% 0.00 in 39 W/m2
08:30 13.8 °F 6.7 °F 29.86 in West 10 mph 10 mph 73% 0.00 in 44 W/m2
08:35 13.7 °F 6.3 °F 29.87 in West 9 mph 10 mph 72% 0.00 in 56 W/m2
08:40 13.7 °F 6.6 °F 29.87 in West 10 mph 10 mph 73% 0.00 in 47 W/m2
08:45 13.7 °F 7.2 °F 29.87 in West 10 mph 10 mph 75% 0.00 in 49 W/m2
08:50 13.6 °F 7.7 °F 29.87 in WSW 8 mph 8 mph 77% 0.00 in 58 W/m2
08:55 13.8 °F 8.2 °F 29.89 in WSW 8 mph 18 mph 78% 0.00 in 77 W/m2
09:00 13.9 °F 7.4 °F 29.88 in WNW 10 mph 10 mph 75% 0.00 in 58 W/m2
09:05 13.9 °F 7.4 °F 29.88 in West 9 mph 10 mph 75% 0.00 in 70 W/m2
09:10 14 °F 7.8 °F 29.88 in West 7 mph 8 mph 76% 0.00 in 74 W/m2
09:15 13.9 °F 8 °F 29.88 in SSW 7 mph 8 mph 77% 0.00 in 67 W/m2
09:20 13.9 °F 7.7 °F 29.88 in West 8 mph 8 mph 76% 0.00 in 107 W/m2
09:25 14 °F 7.8 °F 29.88 in NW 8 mph 8 mph 76% 0.00 in 104 W/m2
09:30 14.1 °F 7.9 °F 29.89 in SW 8 mph 11 mph 76% 0.00 in 98 W/m2
09:35 14.2 °F 8 °F 29.90 in SW 9 mph 11 mph 76% 0.00 in 100 W/m2
09:40 14.1 °F 8.2 °F 29.90 in SW 9 mph 9 mph 77% 0.00 in 95 W/m2
09:45 14 °F 8.4 °F 29.90 in West 8 mph 9 mph 78% 0.00 in 118 W/m2
09:50 14 °F 8.4 °F 29.90 in WSW 7 mph 7 mph 78% 0.00 in 120 W/m2
09:55 14 °F 8.4 °F 29.90 in WSW 8 mph 8 mph 78% 0.00 in 165 W/m2
10:00 14.3 °F 8.7 °F 29.91 in SW 9 mph 9 mph 78% 0.00 in 158 W/m2
10:05 14.3 °F 8.4 °F 29.91 in NW 8 mph 9 mph 77% 0.00 in 123 W/m2
10:10 14.4 °F 8.8 °F 29.91 in WSW 7 mph 8 mph 78% 0.00 in 146 W/m2
10:15 14.6 °F 9 °F 29.91 in WSW 7 mph 15 mph 78% 0.00 in 160 W/m2
10:20 14.7 °F 8.8 °F 29.91 in WSW 7 mph 9 mph 77% 0.00 in 174 W/m2
10:25 14.4 °F 8.5 °F 29.91 in WSW 9 mph 9 mph 77% 0.00 in 190 W/m2
10:30 14.7 °F 8.2 °F 29.92 in SW 8 mph 9 mph 75% 0.00 in 221 W/m2
10:35 14.9 °F 8.1 °F 29.92 in NW 7 mph 9 mph 74% 0.00 in 237 W/m2
10:40 15.1 °F 8.3 °F 29.92 in SW 8 mph 10 mph 74% 0.00 in 248 W/m2
10:45 15 °F 7.6 °F 29.92 in SW 9 mph 14 mph 72% 0.00 in 272 W/m2
10:50 15 °F 8.2 °F 29.92 in West 10 mph 10 mph 74% 0.00 in 279 W/m2
10:55 15.2 °F 8.4 °F 29.93 in WSW 10 mph 10 mph 74% 0.00 in 255 W/m2
11:00 15.4 °F 8.6 °F 29.94 in WNW 8 mph 8 mph 74% 0.00 in 234 W/m2
11:05 15.4 °F 8.9 °F 29.94 in West 8 mph 8 mph 75% 0.00 in 232 W/m2
11:10 15.5 °F 8.7 °F 29.94 in NW 7 mph 7 mph 74% 0.00 in 260 W/m2
11:15 15.5 °F 8.4 °F 29.95 in WNW 8 mph 8 mph 73% 0.00 in 262 W/m2
11:20 15.6 °F 8.5 °F 29.96 in SW 8 mph 8 mph 73% 0.00 in 287 W/m2
11:25 15.9 °F 8.8 °F 29.96 in West 10 mph 14 mph 73% 0.00 in 279 W/m2
11:30 15.9 °F 8.2 °F 29.96 in WSW 11 mph 15 mph 71% 0.00 in 283 W/m2
11:35 16 °F 8.6 °F 29.96 in WSW 10 mph 15 mph 72% 0.00 in 316 W/m2
11:40 15.8 °F 8.7 °F 29.96 in WSW 9 mph 13 mph 73% 0.00 in 283 W/m2
11:45 15.7 °F 8.9 °F 29.96 in SW 9 mph 13 mph 74% 0.00 in 290 W/m2
11:50 15.8 °F 9.3 °F 29.96 in West 10 mph 11 mph 75% 0.00 in 271 W/m2
11:55 15.9 °F 9.1 °F 29.96 in NW 9 mph 11 mph 74% 0.00 in 387 W/m2
12:00 16.6 °F 9.4 °F 29.96 in WSW 9 mph 9 mph 73% 0.00 in 712 W/m2
12:05 16.6 °F 9.1 °F 29.96 in West 9 mph 9 mph 72% 0.00 in 272 W/m2
12:10 16.4 °F 9.6 °F 29.96 in WSW 9 mph 10 mph 74% 0.00 in 265 W/m2
12:15 16.5 °F 9.4 °F 29.96 in West 9 mph 10 mph 73% 0.00 in 241 W/m2
12:20 16.9 °F 9.4 °F 29.96 in SW 8 mph 8 mph 72% 0.00 in 301 W/m2
12:25 16.7 °F 10.1 °F 29.97 in WSW 9 mph 15 mph 75% 0.00 in 297 W/m2
12:30 16.2 °F 9.7 °F 29.97 in SW 10 mph 10 mph 75% 0.00 in 315 W/m2
12:35 16.3 °F 9.8 °F 29.97 in South 10 mph 10 mph 75% 0.00 in 582 W/m2
12:40 16.7 °F 9.8 °F 29.97 in WSW 9 mph 9 mph 74% 0.00 in 582 W/m2
12:45 16.7 °F 9.8 °F 29.97 in WNW 8 mph 9 mph 74% 0.00 in 383 W/m2
12:50 16.6 °F 10.1 °F 29.97 in SW 9 mph 12 mph 75% 0.00 in 664 W/m2
12:55 17.3 °F 10.7 °F 29.97 in WSW 8 mph 12 mph 75% 0.00 in 703 W/m2
13:00 16.9 °F 10.3 °F 29.97 in SW 9 mph 9 mph 75% 0.00 in 751 W/m2
13:05 17.1 °F 10.5 °F 29.97 in West 9 mph 9 mph 75% 0.00 in 418 W/m2
13:10 17.2 °F 10.3 °F 29.97 in SSW 8 mph 8 mph 74% 0.00 in 158 W/m2
13:15 17.2 °F 10.6 °F 29.97 in SW 8 mph 8 mph 75% 0.00 in 626 W/m2
13:20 16.9 °F 10.3 °F 29.97 in WSW 10 mph 10 mph 75% 0.00 in 673 W/m2
13:25 16.6 °F 9.4 °F 29.97 in WSW 10 mph 10 mph 73% 0.00 in 162 W/m2
13:30 16.7 °F 10.1 °F 29.98 in SW 9 mph 12 mph 75% 0.00 in 234 W/m2
13:35 17.3 °F 11 °F 29.97 in SW 9 mph 12 mph 76% 0.00 in 420 W/m2
13:40 17.4 °F 10.8 °F 29.98 in SW 10 mph 11 mph 75% 0.00 in 466 W/m2
13:45 17.8 °F 11.2 °F 29.98 in SW 10 mph 11 mph 75% 0.00 in 541 W/m2
13:50 17.7 °F 11.1 °F 29.97 in South 11 mph 11 mph 75% 0.00 in 473 W/m2
13:55 17.5 °F 10.9 °F 29.97 in West 10 mph 11 mph 75% 0.00 in 527 W/m2
14:00 17.7 °F 11.4 °F 29.97 in SW 9 mph 9 mph 76% 0.00 in 517 W/m2
14:05 17.8 °F 11.5 °F 29.97 in West 8 mph 9 mph 76% 0.00 in 519 W/m2
14:10 18 °F 11.4 °F 29.97 in SW 9 mph 9 mph 75% 0.00 in 504 W/m2
14:15 18 °F 11.4 °F 29.97 in SSW 8 mph 9 mph 75% 0.00 in 410 W/m2
14:20 17.9 °F 11.9 °F 29.97 in West 8 mph 11 mph 77% 0.00 in 431 W/m2
14:25 17.9 °F 11.9 °F 29.97 in WNW 8 mph 11 mph 77% 0.00 in 394 W/m2
14:30 17.7 °F 11.4 °F 29.97 in SSW 9 mph 9 mph 76% 0.00 in 341 W/m2
14:35 17.7 °F 11.7 °F 29.97 in SW 10 mph 10 mph 77% 0.00 in 380 W/m2
14:40 17.6 °F 11.6 °F 29.97 in WSW 9 mph 11 mph 77% 0.00 in 404 W/m2
14:45 17.5 °F 11.8 °F 29.98 in West 9 mph 11 mph 78% 0.00 in 323 W/m2
14:50 17.4 °F 11.7 °F 29.98 in WSW 10 mph 10 mph 78% 0.00 in 350 W/m2
14:55 17.5 °F 11.8 °F 29.98 in WSW 8 mph 10 mph 78% 0.00 in 294 W/m2
15:00 17.4 °F 11.4 °F 29.98 in WSW 8 mph 10 mph 77% 0.00 in 322 W/m2
15:05 17.5 °F 11.8 °F 29.99 in WSW 8 mph 10 mph 78% 0.00 in 206 W/m2
15:10 17.5 °F 11.5 °F 29.99 in SW 9 mph 9 mph 77% 0.00 in 271 W/m2
15:15 17.5 °F 11.5 °F 29.99 in WSW 8 mph 9 mph 77% 0.00 in 246 W/m2
15:20 17.6 °F 11.9 °F 29.99 in West 8 mph 8 mph 78% 0.00 in 213 W/m2
15:25 17.7 °F 11.4 °F 29.98 in SW 7 mph 8 mph 76% 0.00 in 223 W/m2
15:30 17.9 °F 11.6 °F 29.97 in West 7 mph 7 mph 76% 0.00 in 253 W/m2
15:35 18.1 °F 11.8 °F 29.97 in West 8 mph 8 mph 76% 0.00 in 232 W/m2
15:40 18 °F 11.7 °F 29.98 in WSW 8 mph 8 mph 76% 0.00 in 190 W/m2
15:45 18 °F 11.4 °F 29.97 in SW 8 mph 9 mph 75% 0.00 in 186 W/m2
15:50 18 °F 11.1 °F 29.97 in SW 9 mph 17 mph 74% 0.00 in 160 W/m2
15:55 18 °F 11.1 °F 29.98 in WSW 9 mph 17 mph 74% 0.00 in 148 W/m2
16:00 18 °F 11.4 °F 29.98 in West 9 mph 13 mph 75% 0.00 in 135 W/m2
16:05 17.9 °F 11.3 °F 29.97 in West 9 mph 13 mph 75% 0.00 in 146 W/m2
16:10 18 °F 11.1 °F 29.97 in West 9 mph 10 mph 74% 0.00 in 142 W/m2
16:15 18 °F 11.4 °F 29.97 in WSW 8 mph 10 mph 75% 0.00 in 158 W/m2
16:20 18.1 °F 11.8 °F 29.97 in SW 8 mph 8 mph 76% 0.00 in 186 W/m2
16:25 18.1 °F 11.5 °F 29.97 in SW 7 mph 8 mph 75% 0.00 in 200 W/m2
16:30 18.2 °F 11.6 °F 29.98 in SW 8 mph 9 mph 75% 0.00 in 197 W/m2
16:35 18.2 °F 11.6 °F 29.97 in WSW 8 mph 9 mph 75% 0.00 in 190 W/m2
16:40 18.1 °F 11.5 °F 29.97 in WSW 7 mph 9 mph 75% 0.00 in 192 W/m2
16:45 17.9 °F 11 °F 29.97 in SSW 8 mph 9 mph 74% 0.00 in 174 W/m2
16:50 17.8 °F 10.9 °F 29.97 in West 8 mph 10 mph 74% 0.00 in 162 W/m2
16:55 17.6 °F 10.7 °F 29.97 in WSW 8 mph 10 mph 74% 0.00 in 148 W/m2
17:00 17.3 °F 11 °F 29.98 in West 8 mph 8 mph 76% 0.00 in 65 W/m2
17:05 17.1 °F 10.8 °F 29.98 in SSW 6 mph 8 mph 76% 0.00 in 60 W/m2
17:10 16.9 °F 10.6 °F 29.98 in WSW 5 mph 7 mph 76% 0.00 in 51 W/m2
17:15 16.8 °F 10.8 °F 29.98 in WSW 6 mph 11 mph 77% 0.00 in 42 W/m2
17:20 16.8 °F 10.8 °F 29.98 in SW 6 mph 6 mph 77% 0.00 in 39 W/m2
17:25 16.5 °F 10.8 °F 29.99 in WSW 5 mph 9 mph 78% 0.00 in 25 W/m2
17:30 16.4 °F 10.7 °F 29.98 in WSW 5 mph 5 mph 78% 0.00 in 19 W/m2
17:35 16.2 °F 10.5 °F 29.99 in SW 6 mph 6 mph 78% 0.00 in 12 W/m2
17:40 16.2 °F 10.5 °F 29.99 in WSW 7 mph 10 mph 78% 0.00 in 9 W/m2
17:45 16.2 °F 10.5 °F 29.99 in WSW 8 mph 11 mph 78% 0.00 in 7 W/m2
17:50 16.2 °F 10.8 °F 29.99 in SW 8 mph 8 mph 79% 0.00 in 5 W/m2
17:55 16.3 °F 10.6 °F 29.99 in WSW 8 mph 8 mph 78% 0.00 in 0 W/m2
18:00 16.5 °F 11.1 °F 29.99 in SW 9 mph 10 mph 79% 0.00 in 0 W/m2
18:05 16.7 °F 11 °F 29.99 in SW 10 mph 11 mph 78% 0.00 in 0 W/m2
18:10 16.7 °F 11 °F 29.99 in SSW 10 mph 11 mph 78% 0.00 in 0 W/m2
18:15 16.8 °F 11.1 °F 29.99 in SW 10 mph 11 mph 78% 0.00 in 0 W/m2
18:20 16.8 °F 11.1 °F 29.99 in SW 11 mph 11 mph 78% 0.00 in 0 W/m2
18:25 16.8 °F 11.1 °F 29.99 in SW 10 mph 11 mph 78% 0.00 in 0 W/m2
18:30 16.8 °F 11.1 °F 29.99 in SSW 11 mph 11 mph 78% 0.00 in 0 W/m2
18:35 16.8 °F 11.1 °F 29.99 in WSW 11 mph 11 mph 78% 0.00 in 0 W/m2
18:40 16.9 °F 11.2 °F 29.99 in SW 11 mph 11 mph 78% 0.00 in 0 W/m2
18:45 17 °F 11.3 °F 29.99 in SW 11 mph 15 mph 78% 0.00 in 0 W/m2
18:50 17.1 °F 11.4 °F 29.99 in SW 9 mph 9 mph 78% 0.00 in 0 W/m2
18:55 17.3 °F 11.6 °F 29.99 in SW 9 mph 10 mph 78% 0.00 in 0 W/m2
19:00 17.4 °F 11.7 °F 29.99 in SW 10 mph 10 mph 78% 0.00 in 0 W/m2
19:05 17.5 °F 11.8 °F 29.99 in SW 9 mph 10 mph 78% 0.00 in 0 W/m2
19:10 17.5 °F 11.8 °F 29.99 in SW 10 mph 14 mph 78% 0.00 in 0 W/m2
19:15 17.6 °F 11.9 °F 29.99 in SW 10 mph 14 mph 78% 0.00 in 0 W/m2
19:20 17.6 °F 11.9 °F 29.99 in SW 10 mph 16 mph 78% 0.00 in 0 W/m2
19:25 17.6 °F 11.9 °F 29.99 in SSW 10 mph 16 mph 78% 0.00 in 0 W/m2
19:30 17.6 °F 11.6 °F 29.99 in SW 9 mph 12 mph 77% 0.00 in 0 W/m2
19:35 17.6 °F 11.6 °F 29.99 in SW 10 mph 12 mph 77% 0.00 in 0 W/m2
19:40 17.5 °F 11.8 °F 29.98 in SW 10 mph 10 mph 78% 0.00 in 0 W/m2
19:45 17.4 °F 11.7 °F 29.98 in SW 9 mph 10 mph 78% 0.00 in 0 W/m2
19:50 17.4 °F 11.7 °F 29.98 in SW 8 mph 8 mph 78% 0.00 in 0 W/m2
19:55 17.5 °F 11.5 °F 29.98 in SW 9 mph 9 mph 77% 0.00 in 0 W/m2
20:00 17.5 °F 11.8 °F 29.98 in WSW 11 mph 11 mph 78% 0.00 in 0 W/m2
20:05 17.6 °F 11.9 °F 29.98 in WSW 9 mph 11 mph 78% 0.00 in 0 W/m2
20:10 17.5 °F 11.8 °F 29.98 in SW 10 mph 17 mph 78% 0.00 in 0 W/m2
20:15 17.4 °F 11.7 °F 29.98 in WSW 11 mph 17 mph 78% 0.00 in 0 W/m2
20:20 17.3 °F 11.9 °F 29.98 in SW 11 mph 11 mph 79% 0.00 in 0 W/m2
20:25 17.2 °F 11.8 °F 29.98 in SW 10 mph 11 mph 79% 0.00 in 0 W/m2
20:30 17.1 °F 12 °F 29.98 in SW 10 mph 10 mph 80% 0.00 in 0 W/m2
20:35 17 °F 12.2 °F 29.98 in SW 10 mph 11 mph 81% 0.00 in 0 W/m2
20:40 17 °F 12.2 °F 29.98 in SW 10 mph 10 mph 81% 0.00 in 0 W/m2
20:45 17 °F 12.5 °F 29.98 in SW 10 mph 10 mph 82% 0.00 in 0 W/m2
20:50 17 °F 12.5 °F 29.98 in SW 9 mph 9 mph 82% 0.00 in 0 W/m2
20:55 16.7 °F 12.2 °F 29.98 in SW 6 mph 9 mph 82% 0.00 in 0 W/m2
21:00 16.4 °F 12.1 °F 29.98 in ESE 3 mph 4 mph 83% 0.00 in 0 W/m2
21:05 16.3 °F 12 °F 29.97 in South 3 mph 4 mph 83% 0.00 in 0 W/m2
21:10 16.3 °F 12.3 °F 29.98 in ESE 3 mph 3 mph 84% 0.00 in 0 W/m2
21:15 16.3 °F 12.3 °F 29.98 in SSW 3 mph 3 mph 84% 0.00 in 0 W/m2
21:20 16.4 °F 12.4 °F 29.98 in South 4 mph 7 mph 84% 0.00 in 0 W/m2
21:25 16.5 °F 12.5 °F 29.97 in SSW 5 mph 7 mph 84% 0.00 in 0 W/m2
21:30 16.8 °F 12.8 °F 29.97 in SW 7 mph 8 mph 84% 0.00 in 0 W/m2
21:35 17.1 °F 12.8 °F 29.97 in SSW 10 mph 10 mph 83% 0.00 in 0 W/m2
21:40 17.2 °F 12.6 °F 29.98 in SSW 10 mph 10 mph 82% 0.00 in 0 W/m2
21:45 17.3 °F 13 °F 29.98 in South 10 mph 10 mph 83% 0.00 in 0 W/m2
21:50 17.4 °F 13.1 °F 29.98 in SSW 10 mph 10 mph 83% 0.00 in 0 W/m2
21:55 17.4 °F 12.8 °F 29.98 in South 10 mph 10 mph 82% 0.00 in 0 W/m2
22:00 17.5 °F 12.9 °F 29.97 in SW 10 mph 11 mph 82% 0.00 in 0 W/m2
22:05 17.6 °F 13 °F 29.97 in SSW 10 mph 11 mph 82% 0.00 in 0 W/m2
22:10 17.5 °F 13.2 °F 29.97 in SW 10 mph 10 mph 83% 0.00 in 0 W/m2
22:15 17.5 °F 13.2 °F 29.98 in SW 10 mph 10 mph 83% 0.00 in 0 W/m2
22:20 17.4 °F 13.4 °F 29.97 in SW 10 mph 10 mph 84% 0.00 in 0 W/m2
22:25 17.4 °F 13.4 °F 29.97 in SW 10 mph 13 mph 84% 0.00 in 0 W/m2
22:30 17.3 °F 13.6 °F 29.97 in SSW 10 mph 11 mph 85% 0.00 in 0 W/m2
22:35 17.2 °F 13.5 °F 29.97 in SSW 10 mph 11 mph 85% 0.00 in 0 W/m2
22:40 17.2 °F 13.5 °F 29.97 in WSW 10 mph 11 mph 85% 0.00 in 0 W/m2
22:45 17.2 °F 13.7 °F 29.97 in SSW 10 mph 11 mph 86% 0.00 in 0 W/m2
22:50 17.2 °F 13.7 °F 29.97 in SSW 10 mph 12 mph 86% 0.00 in 0 W/m2
22:55 17.2 °F 13.7 °F 29.97 in SW 10 mph 12 mph 86% 0.00 in 0 W/m2
23:00 17.2 °F 13.7 °F 29.97 in SW 10 mph 10 mph 86% 0.00 in 0 W/m2
23:05 17.2 °F 13.7 °F 29.97 in SSW 10 mph 11 mph 86% 0.00 in 0 W/m2
23:10 17.3 °F 13.8 °F 29.97 in SW 10 mph 12 mph 86% 0.00 in 0 W/m2
23:15 17.3 °F 14.1 °F 29.97 in SW 10 mph 12 mph 87% 0.00 in 0 W/m2
23:20 17.2 °F 14 °F 29.97 in SW 10 mph 10 mph 87% 0.00 in 0 W/m2
23:25 17.2 °F 14 °F 29.97 in South 10 mph 10 mph 87% 0.00 in 0 W/m2
23:30 17.2 °F 14 °F 29.97 in WSW 10 mph 11 mph 87% 0.00 in 0 W/m2
23:35 17.1 °F 13.9 °F 29.96 in SW 10 mph 11 mph 87% 0.00 in 0 W/m2
23:40 17.1 °F 13.9 °F 29.97 in SW 10 mph 10 mph 87% 0.00 in 0 W/m2
23:45 17.2 °F 14 °F 29.96 in SW 9 mph 10 mph 87% 0.00 in 0 W/m2
23:50 17.2 °F 14 °F 29.96 in SW 8 mph 8 mph 87% 0.00 in 0 W/m2
23:55 17.2 °F 14 °F 29.96 in WSW 7 mph 8 mph 87% 0.00 in 0 W/m2
Sand Point, Michigan, USA
Compliments of Weather Underground - 2 mb